User: anonymous   Login
Location: Muenchen
(48.1800°N, 11.5800°E)
Time: 11:22:58
(UTC+01:00)
Language:

Sich 1 Rocket - Orbit

View from above orbital plane
View from above orbital plane
View from above satellite
View from above satellite

Ground track
Ground track

The orbit data is extracted from the following two-line orbital elements,

1 23659U 95046C   17054.09163294  .00000068  00000-0  61624-5 0  9998
2 23659  82.5282  51.3134 0024250 245.8970 178.3616 14.78228148157694
Epoch (UTC): 23 February 2017 02:11:57
Eccentricity: 0.0024250
inclination: 82.5282°
perigee height: 618 km
apogee height: 652 km
right ascension of ascending node: 51.3134°
argument of perigee: 245.8970°
revolutions per day: 14.78228148
mean anomaly at epoch: 178.3616°
orbit number at epoch: 15769

The dashed part of the orbit path shows where the satellite is in the earth's shadow,  

DLR